Weather History for KBMQ - December, 2012

Change the Weather History Date:

Monday, December 31, 2012

  Actual Average Record
Temperature  
Mean Temperature 50 °F -  
Max Temperature 57 °F 57 °F 78 °F (2005)
Min Temperature 44 °F 36 °F 28 °F (2001)
Degree Days  
Heating Degree Days 14    
Moisture  
Dew Point 50 °F    
Average Humidity 94    
Maximum Humidity 100    
Minimum Humidity 73    
Precipitation  
Precipitation 0.00 in - - ()
Sea Level Pressure  
Sea Level Pressure 30.03 in    
Wind  
Wind Speed 4 mph (ESE)    
Max Wind Speed 15 mph    
Max Gust Speed 28 mph    
Visibility 3 miles    
Events Fog , Rain    
Averages and records for this station are not official NWS values.
T = Trace of Precipitation, MM = Missing Value Source: NWS Daily Summary

Daily Weather History Graph

Daily Weather History Graph

Search for Another Location

Airport or City:

Trip Planner

Search our weather history database for the weather conditions in past years. The results will help you decide how hot, cold, wet, or windy it might be!

Date:

Astronomy

Dec. 31, 2012 Rise Set
Actual Time 7:30 AM CST 5:42 PM CST
Civil Twilight 7:03 AM CST 6:08 PM CST
Nautical Twilight 6:33 AM CST 6:38 PM CST
Astronomical Twilight 6:04 AM CST 7:08 PM CST
Moon 8:59 PM CST (12/31) 9:25 AM CST (12/31)
Length of Visible Light 11h 04m
Length of Day
10h 11m
Waning Gibbous, 90% of the Moon is Illuminated
Dec 31
Waning Gibbous
Jan 4
Last Quarter
Jan 11
New
Jan 18
First Quarter
Jan 26
Full

Hourly Weather History & Observations

Time (CST) Temp. Windchill Dew Point Humidity Pressure Visibility Wind Dir Wind Speed Gust Speed Precip Events Conditions
12:23 AM 46.0 °F 43.1 °F 37.9 °F 73% 30.18 in 10.0 mi SSE 5.8 mph - N/A   Overcast
12:53 AM 45.0 °F 41.8 °F 39.9 °F 82% 30.18 in 4.0 mi SSE 5.8 mph - N/A   Haze
1:26 AM 44.1 °F 41.5 °F 41.0 °F 89% 30.16 in 5.0 mi Variable 4.6 mph - 0.00 in   Overcast
1:53 AM 44.1 °F 40.8 °F 42.1 °F 93% 30.16 in 4.0 mi SE 5.8 mph - 0.00 in   Overcast
2:17 AM 45.0 °F 43.5 °F 42.1 °F 90% 30.15 in 3.0 mi SE 3.5 mph - 0.00 in   Overcast
2:27 AM 44.1 °F 42.5 °F 42.1 °F 93% 30.15 in 2.5 mi SE 3.5 mph - 0.00 in Rain Light Rain
2:48 AM 44.6 °F 41.4 °F 42.8 °F 93% 30.14 in 2.5 mi ESE 5.8 mph - 0.00 in   Overcast
2:53 AM 45.0 °F 43.5 °F 43.0 °F 93% 30.14 in 2.5 mi SE 3.5 mph - 0.00 in   Overcast
3:14 AM 45.0 °F 42.6 °F 43.0 °F 93% 30.13 in 3.0 mi East 4.6 mph - N/A   Overcast
3:33 AM 45.0 °F 42.6 °F 43.0 °F 93% 30.14 in 6.0 mi ESE 4.6 mph - N/A   Overcast
3:53 AM 45.0 °F 41.2 °F 43.0 °F 93% 30.11 in 4.0 mi ESE 6.9 mph - N/A   Overcast
4:34 AM 45.0 °F 42.6 °F 43.0 °F 93% 30.09 in 7.0 mi SE 4.6 mph - 0.00 in   Overcast
4:53 AM 45.0 °F 42.6 °F 44.1 °F 97% 30.08 in 3.0 mi ESE 4.6 mph - 0.00 in Rain Light Rain
5:02 AM 46.0 °F 44.8 °F 44.1 °F 93% 30.08 in 2.5 mi ESE 3.5 mph - 0.00 in Rain Light Rain
5:11 AM 45.0 °F 43.5 °F 44.1 °F 97% 30.09 in 3.0 mi East 3.5 mph - 0.00 in Rain Light Rain
5:32 AM 45.0 °F 43.5 °F 44.1 °F 97% 30.08 in 2.5 mi ENE 3.5 mph - 0.00 in Rain Light Rain
5:53 AM 45.0 °F 43.5 °F 44.1 °F 97% 30.08 in 2.0 mi ENE 3.5 mph - 0.00 in Rain Light Rain
6:53 AM 46.0 °F - 45.0 °F 96% 30.07 in 3.0 mi Calm Calm - 0.00 in   Overcast
7:31 AM 46.0 °F - 45.0 °F 96% 30.07 in 2.0 mi Calm Calm - 0.00 in Rain Light Rain
7:47 AM 46.4 °F 42.9 °F 44.6 °F 93% 30.05 in 1.2 mi SE 6.9 mph - 0.00 in Rain Light Rain
7:53 AM 46.0 °F 43.1 °F 45.0 °F 96% 30.05 in 1.0 mi ESE 5.8 mph - 0.00 in Rain Light Rain
8:03 AM 46.0 °F 43.1 °F 45.0 °F 96% 30.05 in 1.5 mi ESE 5.8 mph - 0.00 in   Overcast
8:13 AM 46.0 °F 43.1 °F 45.0 °F 96% 30.05 in 2.0 mi SE 5.8 mph - 0.00 in   Overcast
8:27 AM 46.0 °F 43.1 °F 45.0 °F 96% 30.05 in 4.0 mi SE 5.8 mph - 0.00 in   Overcast
8:53 AM 46.9 °F - 46.0 °F 97% 30.03 in 4.0 mi SSE 8.1 mph - 0.00 in   Overcast
9:53 AM 51.1 °F - 50.0 °F 96% 30.02 in 6.0 mi South 15.0 mph 27.6 mph N/A   Overcast
10:18 AM 50.0 °F - 48.9 °F 96% 30.03 in 2.0 mi South 10.4 mph - N/A   Overcast
10:23 AM 50.0 °F - 48.9 °F 96% 30.03 in 1.2 mi South 9.2 mph - N/A   Overcast
10:31 AM 48.9 °F - 48.0 °F 97% 30.03 in 0.5 mi SSW 8.1 mph - N/A Fog Fog
10:38 AM 48.9 °F - 48.0 °F 97% 30.05 in 0.2 mi WSW 6.9 mph - N/A Fog Fog
10:53 AM 48.9 °F - 48.0 °F 97% 30.05 in 0.2 mi WSW 4.6 mph - N/A Fog Fog
11:41 AM 50.0 °F - 50.0 °F 100% 30.03 in 0.5 mi Calm Calm - N/A Fog Fog
11:48 AM 51.8 °F - 50.0 °F 94% 30.03 in 1.5 mi Calm Calm - N/A   Overcast
11:53 AM 51.1 °F - 50.0 °F 96% 30.03 in 1.8 mi Calm Calm - N/A   Overcast
12:03 PM 51.1 °F - 50.0 °F 96% 30.03 in 1.0 mi NNE 3.5 mph - N/A   Overcast
12:24 PM 52.0 °F - 51.1 °F 97% 30.01 in 2.0 mi Calm Calm - N/A   Overcast
12:39 PM 52.0 °F - 52.0 °F 100% 30.01 in 3.0 mi Calm Calm - N/A   Overcast
12:43 PM 53.1 °F - 51.1 °F 93% 30.01 in 2.5 mi Calm Calm - N/A   Overcast
12:53 PM 53.1 °F - 51.1 °F 93% 30.00 in 1.5 mi NNE 3.5 mph - N/A   Overcast
1:04 PM 53.1 °F - 51.1 °F 93% 30.00 in 1.0 mi NNE 3.5 mph - N/A   Overcast
1:16 PM 53.1 °F - 52.0 °F 96% 30.00 in 0.8 mi Calm Calm - 0.00 in Rain Light Rain
1:30 PM 54.0 °F - 52.0 °F 93% 29.99 in 0.8 mi Calm Calm - 0.00 in   Overcast
1:46 PM 54.0 °F - 53.1 °F 97% 29.98 in 0.8 mi Calm Calm - 0.00 in   Overcast
1:53 PM 55.0 °F - 53.1 °F 93% 29.98 in 0.8 mi Calm Calm - 0.00 in   Overcast
2:18 PM 55.9 °F - 54.0 °F 93% 29.98 in 0.8 mi Calm Calm - N/A   Overcast
2:25 PM 55.9 °F - 54.0 °F 93% 29.98 in 1.0 mi NW 4.6 mph - N/A   Overcast
2:39 PM 55.9 °F - 54.0 °F 93% 29.99 in 1.8 mi NW 4.6 mph - N/A   Overcast
2:48 PM 55.4 °F - 53.6 °F 94% 29.99 in 2.0 mi WNW 3.5 mph - N/A   Overcast
2:53 PM 55.9 °F - 55.0 °F 97% 29.98 in 1.5 mi WNW 3.5 mph - 0.00 in Rain Light Rain
3:03 PM 55.9 °F - 55.0 °F 97% 29.99 in 1.5 mi WNW 3.5 mph - 0.00 in Rain Light Rain
3:15 PM 55.9 °F - 55.0 °F 97% 29.98 in 2.5 mi Calm Calm - 0.00 in Rain Light Rain
3:23 PM 57.0 °F - 55.0 °F 93% 29.98 in 4.0 mi Calm Calm - 0.00 in   Overcast
3:53 PM 57.0 °F - 55.0 °F 93% 29.98 in 4.0 mi Calm Calm - 0.00 in   Overcast
4:24 PM 57.0 °F - 55.9 °F 96% 29.98 in 3.0 mi Calm Calm - N/A   Overcast
4:40 PM 57.0 °F - 55.0 °F 93% 29.98 in 5.0 mi Calm Calm - N/A   Overcast
4:51 PM 57.2 °F - 55.4 °F 94% 29.97 in 5.0 mi Calm Calm - N/A   Overcast
4:53 PM 57.0 °F - 55.0 °F 93% 29.96 in 5.0 mi Calm Calm - N/A   Overcast
5:07 PM 57.0 °F - 55.9 °F 96% 29.97 in 6.0 mi Calm Calm - N/A   Overcast
6:44 PM 55.9 °F - 55.0 °F 97% 29.98 in 6.0 mi North 4.6 mph - N/A   Overcast
6:53 PM 55.9 °F - 55.0 °F 97% 29.97 in 5.0 mi NNE 3.5 mph - N/A   Overcast
7:07 PM 55.9 °F - 54.0 °F 93% 29.98 in 5.0 mi NNE 4.6 mph - N/A   Overcast
7:46 PM 55.9 °F - 54.0 °F 93% 30.00 in 5.0 mi Calm Calm - N/A   Overcast
7:53 PM 55.9 °F - 54.0 °F 93% 29.99 in 5.0 mi Calm Calm - N/A   Overcast
8:43 PM 55.9 °F - 54.0 °F 93% 30.01 in 5.0 mi Calm Calm - N/A   Overcast
8:53 PM 55.9 °F - 54.0 °F 93% 30.00 in 5.0 mi Calm Calm - N/A   Overcast
9:01 PM 55.9 °F - 54.0 °F 93% 30.01 in 1.8 mi Calm Calm - N/A   Overcast
9:06 PM 55.9 °F - 54.0 °F 93% 30.01 in 1.2 mi Calm Calm - N/A   Overcast
9:11 PM 55.9 °F - 54.0 °F 93% 30.01 in 2.0 mi Calm Calm - N/A   Overcast
9:15 PM 55.0 °F - 54.0 °F 96% 30.01 in 3.0 mi Calm Calm - N/A   Overcast
9:53 PM 55.0 °F - 54.0 °F 96% 29.99 in 6.0 mi Calm Calm - N/A   Overcast
10:53 PM 57.0 °F - 55.0 °F 93% 29.99 in 7.0 mi North 4.6 mph - 0.00 in Rain Light Rain
11:53 PM 55.9 °F - 53.1 °F 90% 29.99 in 10.0 mi North 4.6 mph - 0.00 in   Overcast